Volver al catálogo

CZ-4 DEB

ActivoSSO
NORAD 26262·DEBRIS·🇨🇳 China

Lanzado Oct 14, 1999 desde Taiyuan Satellite Launch Center

Loading…

Próximos Pases (próximas 24 horas)

TLE

ActualizadoSource: Space-Track

Época: Sep 14, 2026, 12:38 UTC

1 26262U 99057EY  26257.52674947  .00006666  00000-0  79993-3 0  9998
2 26262  98.3393   1.4569 0036564 213.2342 208.3514 14.83902134401059

Sigue CZ-4 DEB en tiempo real con AllMySat

Download on the App Store